Multibeam Report for SKQ201510S


Ship Name: Sikuliaq
Chief Scientist: Worcester, Peter
Scripps Institution of Oceanography
Source Organization: Rolling Deck to Repository
Start Date: 2015-07-20
End Date: 2015-08-22


View ISO Metadata

Visit the full NCEI Bathymetry Viewer


Multibeam Bathymetry

Cruise Details

Project: Canada Basin Acoustic Propagation Experiment (CANAPE)
Instrument: Kongsberg EM302 and EM710

Data Quality

Number of Files: 425
Number of Records: 4599461
BATHYMETRY DATA Quantity Percentage
Number of Beams 1897974240 100%
Number of Good Beams 1730165804 91.16%
Number of Zero Beams 0 0%
Number of Flagged Beams 167808436 8.84%
AMPLITUDE DATA Quantity Percentage
Number of Beams 1897974240 100%
Number of Good Beams 1730165804 91.16%
Number of Zero Beams 0 0%
Number of Flagged Beams 167808436 8.84%
SIDESCAN DATA Quantity Percentage
Number of Pixels 4709658624 100%
Number of Good Pixels 3047967247 64.72%
Number of Zero Pixels 0 0%
Number of Flagged Pixels 1661691377 35.28%

Navigation Totals

Total Time: 714.5702 hours
Total Track Length: 7827.3507 km
Average Speed: 10.954 km/hr (5.9147 knots)

Cruise Bounds

Northern Extent: 73.64975
Southern Extent: 64.45259
Western Extent: -168.96526
Eastern Extent: -146.92307

Limits

Minimum Sonar Depth 2.3988 Maximum Sonar Depth 6.7864
Minimum Altitude 0 Maximum Altitude 4302.7183
Minimum Depth 5.921 Maximum Depth 4617.1416
Minimum Amplitude 0 Maximum Amplitude 52.6
Minimum Sidescan 0 Maximum Sidescan 327.66

File Information

Full Resolution Bathymetry as collected (raw): 421

Files File Size Description
0000_20150723_203844_Sikuliaq.all.mb58.gz 859.74MB Kongsberg multibeam vendor format
0001_20150723_223844_Sikuliaq.all.mb58.gz 758.93MB Kongsberg multibeam vendor format
0002_20150724_003844_Sikuliaq.all.mb58.gz 621.70MB Kongsberg multibeam vendor format
0003_20150724_023844_Sikuliaq.all.mb58.gz 625.65MB Kongsberg multibeam vendor format
0004_20150724_043844_Sikuliaq.all.mb58.gz 680.38MB Kongsberg multibeam vendor format
0005_20150724_063845_Sikuliaq.all.mb58.gz 665.06MB Kongsberg multibeam vendor format
0006_20150724_083845_Sikuliaq.all.mb58.gz 620.94MB Kongsberg multibeam vendor format
0007_20150724_103845_Sikuliaq.all.mb58.gz 608.72MB Kongsberg multibeam vendor format
0008_20150724_123845_Sikuliaq.all.mb58.gz 579.18MB Kongsberg multibeam vendor format
0009_20150724_143845_Sikuliaq.all.mb58.gz 507.34MB Kongsberg multibeam vendor format
0010_20150724_163845_Sikuliaq.all.mb58.gz 281.12MB Kongsberg multibeam vendor format
0011_20150724_183845_Sikuliaq.all.mb58.gz 439.31MB Kongsberg multibeam vendor format
0012_20150724_203845_Sikuliaq.all.mb58.gz 598.57MB Kongsberg multibeam vendor format
0013_20150724_223845_Sikuliaq.all.mb58.gz 589.18MB Kongsberg multibeam vendor format
0014_20150725_003845_Sikuliaq.all.mb58.gz 603.74MB Kongsberg multibeam vendor format
0015_20150725_023845_Sikuliaq.all.mb58.gz 578.69MB Kongsberg multibeam vendor format
0016_20150725_043845_Sikuliaq.all.mb58.gz 558.38MB Kongsberg multibeam vendor format
0017_20150725_063845_Sikuliaq.all.mb58.gz 573.63MB Kongsberg multibeam vendor format
0018_20150725_083845_Sikuliaq.all.mb58.gz 580.07MB Kongsberg multibeam vendor format
0019_20150725_103845_Sikuliaq.all.mb58.gz 597.26MB Kongsberg multibeam vendor format
0020_20150725_123845_Sikuliaq.all.mb58.gz 593.30MB Kongsberg multibeam vendor format
0021_20150725_143846_Sikuliaq.all.mb58.gz 534.82MB Kongsberg multibeam vendor format
0022_20150725_163845_Sikuliaq.all.mb58.gz 488.57MB Kongsberg multibeam vendor format
0023_20150725_183846_Sikuliaq.all.mb58.gz 410.68MB Kongsberg multibeam vendor format
0024_20150725_203846_Sikuliaq.all.mb58.gz 407.68MB Kongsberg multibeam vendor format
0025_20150725_223846_Sikuliaq.all.mb58.gz 497.83MB Kongsberg multibeam vendor format
0026_20150726_003846_Sikuliaq.all.mb58.gz 479.96MB Kongsberg multibeam vendor format
0027_20150726_023846_Sikuliaq.all.mb58.gz 293.70MB Kongsberg multibeam vendor format
0028_20150726_043846_Sikuliaq.all.mb58.gz 323.73MB Kongsberg multibeam vendor format
0029_20150726_063846_Sikuliaq.all.mb58.gz 278.60MB Kongsberg multibeam vendor format
0030_20150726_083846_Sikuliaq.all.mb58.gz 258.62MB Kongsberg multibeam vendor format
0031_20150726_103847_Sikuliaq.all.mb58.gz 229.86MB Kongsberg multibeam vendor format
0032_20150726_123846_Sikuliaq.all.mb58.gz 225.45MB Kongsberg multibeam vendor format
0033_20150726_143846_Sikuliaq.all.mb58.gz 221.91MB Kongsberg multibeam vendor format
0034_20150726_163846_Sikuliaq.all.mb58.gz 221.68MB Kongsberg multibeam vendor format
0035_20150726_183847_Sikuliaq.all.mb58.gz 229.10MB Kongsberg multibeam vendor format
0036_20150726_203846_Sikuliaq.all.mb58.gz 223.92MB Kongsberg multibeam vendor format
0037_20150726_223847_Sikuliaq.all.mb58.gz 190.38MB Kongsberg multibeam vendor format
0038_20150727_003847_Sikuliaq.all.mb58.gz 166.23MB Kongsberg multibeam vendor format
0039_20150727_023847_Sikuliaq.all.mb58.gz 149.38MB Kongsberg multibeam vendor format
0040_20150727_043846_Sikuliaq.all.mb58.gz 87.89MB Kongsberg multibeam vendor format
0041_20150727_063848_Sikuliaq.all.mb58.gz 74.06MB Kongsberg multibeam vendor format
0042_20150727_083853_Sikuliaq.all.mb58.gz 69.79MB Kongsberg multibeam vendor format
0043_20150727_103847_Sikuliaq.all.mb58.gz 67.72MB Kongsberg multibeam vendor format
0044_20150727_123851_Sikuliaq.all.mb58.gz 61.59MB Kongsberg multibeam vendor format
0045_20150727_143854_Sikuliaq.all.mb58.gz 55.70MB Kongsberg multibeam vendor format
0046_20150727_163848_Sikuliaq.all.mb58.gz 60.02MB Kongsberg multibeam vendor format
0047_20150727_183850_Sikuliaq.all.mb58.gz 65.11MB Kongsberg multibeam vendor format
0048_20150727_203855_Sikuliaq.all.mb58.gz 11.53MB Kongsberg multibeam vendor format
0049_20150727_233452_Sikuliaq.all.mb58.gz 65.21MB Kongsberg multibeam vendor format
0050_20150728_013451_Sikuliaq.all.mb58.gz 62.92MB Kongsberg multibeam vendor format
0051_20150728_033454_Sikuliaq.all.mb58.gz 59.83MB Kongsberg multibeam vendor format
0052_20150728_053453_Sikuliaq.all.mb58.gz 69.44MB Kongsberg multibeam vendor format
0053_20150728_073449_Sikuliaq.all.mb58.gz 69.42MB Kongsberg multibeam vendor format
0054_20150728_093458_Sikuliaq.all.mb58.gz 68.71MB Kongsberg multibeam vendor format
0055_20150728_113450_Sikuliaq.all.mb58.gz 68.38MB Kongsberg multibeam vendor format
0056_20150728_133450_Sikuliaq.all.mb58.gz 64.38MB Kongsberg multibeam vendor format
0057_20150728_153456_Sikuliaq.all.mb58.gz 63.87MB Kongsberg multibeam vendor format
0058_20150728_173452_Sikuliaq.all.mb58.gz 69.24MB Kongsberg multibeam vendor format
0059_20150728_193451_Sikuliaq.all.mb58.gz 66.31MB Kongsberg multibeam vendor format
0060_20150728_213455_Sikuliaq.all.mb58.gz 69.48MB Kongsberg multibeam vendor format
0061_20150728_233450_Sikuliaq.all.mb58.gz 69.92MB Kongsberg multibeam vendor format
0062_20150729_013453_Sikuliaq.all.mb58.gz 69.81MB Kongsberg multibeam vendor format
0063_20150729_033455_Sikuliaq.all.mb58.gz 66.90MB Kongsberg multibeam vendor format
0064_20150729_053456_Sikuliaq.all.mb58.gz 58.95MB Kongsberg multibeam vendor format
0065_20150729_073453_Sikuliaq.all.mb58.gz 56.53MB Kongsberg multibeam vendor format
0066_20150729_093454_Sikuliaq.all.mb58.gz 58.13MB Kongsberg multibeam vendor format
0067_20150729_113456_Sikuliaq.all.mb58.gz 59.53MB Kongsberg multibeam vendor format
0068_20150729_133452_Sikuliaq.all.mb58.gz 61.33MB Kongsberg multibeam vendor format
0069_20150729_153453_Sikuliaq.all.mb58.gz 59.84MB Kongsberg multibeam vendor format
0070_20150729_173456_Sikuliaq.all.mb58.gz 60.49MB Kongsberg multibeam vendor format
0071_20150729_193456_Sikuliaq.all.mb58.gz 65.31MB Kongsberg multibeam vendor format
0072_20150729_213452_Sikuliaq.all.mb58.gz 67.28MB Kongsberg multibeam vendor format
0073_20150729_233456_Sikuliaq.all.mb58.gz 67.31MB Kongsberg multibeam vendor format
0074_20150730_013451_Sikuliaq.all.mb58.gz 69.15MB Kongsberg multibeam vendor format
0075_20150730_033453_Sikuliaq.all.mb58.gz 69.41MB Kongsberg multibeam vendor format
0076_20150730_053456_Sikuliaq.all.mb58.gz 68.07MB Kongsberg multibeam vendor format
0077_20150730_073455_Sikuliaq.all.mb58.gz 69.43MB Kongsberg multibeam vendor format
0078_20150730_093453_Sikuliaq.all.mb58.gz 69.54MB Kongsberg multibeam vendor format
0079_20150730_113458_Sikuliaq.all.mb58.gz 69.64MB Kongsberg multibeam vendor format
0080_20150730_133455_Sikuliaq.all.mb58.gz 69.75MB Kongsberg multibeam vendor format
0081_20150730_153457_Sikuliaq.all.mb58.gz 69.85MB Kongsberg multibeam vendor format
0082_20150730_173452_Sikuliaq.all.mb58.gz 69.80MB Kongsberg multibeam vendor format
0083_20150730_193453_Sikuliaq.all.mb58.gz 69.90MB Kongsberg multibeam vendor format
0084_20150730_213456_Sikuliaq.all.mb58.gz 69.67MB Kongsberg multibeam vendor format
0085_20150730_233456_Sikuliaq.all.mb58.gz 69.97MB Kongsberg multibeam vendor format
0086_20150731_013458_Sikuliaq.all.mb58.gz 69.55MB Kongsberg multibeam vendor format
0087_20150731_033457_Sikuliaq.all.mb58.gz 69.44MB Kongsberg multibeam vendor format
0088_20150731_053458_Sikuliaq.all.mb58.gz 69.99MB Kongsberg multibeam vendor format
0089_20150731_073459_Sikuliaq.all.mb58.gz 69.58MB Kongsberg multibeam vendor format
0090_20150731_093500_Sikuliaq.all.mb58.gz 69.42MB Kongsberg multibeam vendor format
0091_20150731_113456_Sikuliaq.all.mb58.gz 70.02MB Kongsberg multibeam vendor format
0092_20150731_133453_Sikuliaq.all.mb58.gz 108.38MB Kongsberg multibeam vendor format
0092_20150731_164320_Sikuliaq.all.mb58.gz 6.32MB Kongsberg multibeam vendor format
0093_20150731_165803_Sikuliaq.all.mb58.gz 69.47MB Kongsberg multibeam vendor format
0094_20150731_185803_Sikuliaq.all.mb58.gz 69.29MB Kongsberg multibeam vendor format
0095_20150731_205805_Sikuliaq.all.mb58.gz 65.53MB Kongsberg multibeam vendor format
0096_20150731_225809_Sikuliaq.all.mb58.gz 68.64MB Kongsberg multibeam vendor format
0097_20150801_005810_Sikuliaq.all.mb58.gz 69.21MB Kongsberg multibeam vendor format
0098_20150801_025804_Sikuliaq.all.mb58.gz 69.36MB Kongsberg multibeam vendor format
0099_20150801_045808_Sikuliaq.all.mb58.gz 68.83MB Kongsberg multibeam vendor format
0100_20150801_065811_Sikuliaq.all.mb58.gz 68.37MB Kongsberg multibeam vendor format
0101_20150801_085806_Sikuliaq.all.mb58.gz 68.18MB Kongsberg multibeam vendor format
0102_20150801_105804_Sikuliaq.all.mb58.gz 69.22MB Kongsberg multibeam vendor format
0103_20150801_125808_Sikuliaq.all.mb58.gz 65.91MB Kongsberg multibeam vendor format
0104_20150803_172351_Sikuliaq.all.mb58.gz 68.48MB Kongsberg multibeam vendor format
0105_20150803_192350_Sikuliaq.all.mb58.gz 68.61MB Kongsberg multibeam vendor format
0106_20150803_212355_Sikuliaq.all.mb58.gz 67.93MB Kongsberg multibeam vendor format
0107_20150803_232350_Sikuliaq.all.mb58.gz 68.27MB Kongsberg multibeam vendor format
0108_20150804_012351_Sikuliaq.all.mb58.gz 67.60MB Kongsberg multibeam vendor format
0109_20150804_032353_Sikuliaq.all.mb58.gz 69.16MB Kongsberg multibeam vendor format
0110_20150804_052350_Sikuliaq.all.mb58.gz 70.30MB Kongsberg multibeam vendor format
0111_20150804_072349_Sikuliaq.all.mb58.gz 63.87MB Kongsberg multibeam vendor format
0112_20150804_092347_Sikuliaq.all.mb58.gz 67.03MB Kongsberg multibeam vendor format
0113_20150804_112348_Sikuliaq.all.mb58.gz 69.93MB Kongsberg multibeam vendor format
0114_20150804_132349_Sikuliaq.all.mb58.gz 47.37MB Kongsberg multibeam vendor format
0115_20150806_170030_Sikuliaq.all.mb58.gz 70.08MB Kongsberg multibeam vendor format
0116_20150806_190036_Sikuliaq.all.mb58.gz 68.87MB Kongsberg multibeam vendor format
0117_20150806_210031_Sikuliaq.all.mb58.gz 66.35MB Kongsberg multibeam vendor format
0118_20150806_230034_Sikuliaq.all.mb58.gz 68.13MB Kongsberg multibeam vendor format
0119_20150807_010032_Sikuliaq.all.mb58.gz 69.74MB Kongsberg multibeam vendor format
0120_20150807_030034_Sikuliaq.all.mb58.gz 70.99MB Kongsberg multibeam vendor format
0121_20150807_050030_Sikuliaq.all.mb58.gz 72.89MB Kongsberg multibeam vendor format
0122_20150807_070035_Sikuliaq.all.mb58.gz 74.57MB Kongsberg multibeam vendor format
0123_20150807_090032_Sikuliaq.all.mb58.gz 75.23MB Kongsberg multibeam vendor format
0124_20150807_110033_Sikuliaq.all.mb58.gz 84.67MB Kongsberg multibeam vendor format
0125_20150807_130033_Sikuliaq.all.mb58.gz 80.82MB Kongsberg multibeam vendor format
0126_20150807_150034_Sikuliaq.all.mb58.gz 75.19MB Kongsberg multibeam vendor format
0127_20150807_170036_Sikuliaq.all.mb58.gz 76.04MB Kongsberg multibeam vendor format
0128_20150807_190031_Sikuliaq.all.mb58.gz 65.87MB Kongsberg multibeam vendor format
0129_20150807_210034_Sikuliaq.all.mb58.gz 73.19MB Kongsberg multibeam vendor format
0130_20150807_230034_Sikuliaq.all.mb58.gz 72.55MB Kongsberg multibeam vendor format
0131_20150808_010033_Sikuliaq.all.mb58.gz 72.89MB Kongsberg multibeam vendor format
0132_20150808_030036_Sikuliaq.all.mb58.gz 68.91MB Kongsberg multibeam vendor format
0133_20150808_050035_Sikuliaq.all.mb58.gz 67.17MB Kongsberg multibeam vendor format
0134_20150808_070032_Sikuliaq.all.mb58.gz 69.56MB Kongsberg multibeam vendor format
0135_20150808_090033_Sikuliaq.all.mb58.gz 69.40MB Kongsberg multibeam vendor format
0136_20150808_110036_Sikuliaq.all.mb58.gz 69.42MB Kongsberg multibeam vendor format
0137_20150808_130033_Sikuliaq.all.mb58.gz 49.73MB Kongsberg multibeam vendor format
0138_20150810_171217_Sikuliaq.all.mb58.gz 69.42MB Kongsberg multibeam vendor format
0139_20150810_191215_Sikuliaq.all.mb58.gz 69.44MB Kongsberg multibeam vendor format
0140_20150810_211212_Sikuliaq.all.mb58.gz 69.39MB Kongsberg multibeam vendor format
0141_20150810_231215_Sikuliaq.all.mb58.gz 70.55MB Kongsberg multibeam vendor format
0142_20150811_011215_Sikuliaq.all.mb58.gz 70.23MB Kongsberg multibeam vendor format
0143_20150811_031214_Sikuliaq.all.mb58.gz 72.12MB Kongsberg multibeam vendor format
0144_20150811_051214_Sikuliaq.all.mb58.gz 74.99MB Kongsberg multibeam vendor format
0145_20150811_071213_Sikuliaq.all.mb58.gz 216.57MB Kongsberg multibeam vendor format
0146_20150811_091210_Sikuliaq.all.mb58.gz 136.56MB Kongsberg multibeam vendor format
0147_20150811_111210_Sikuliaq.all.mb58.gz 73.82MB Kongsberg multibeam vendor format
0148_20150811_131214_Sikuliaq.all.mb58.gz 71.62MB Kongsberg multibeam vendor format
0149_20150811_151214_Sikuliaq.all.mb58.gz 50.11MB Kongsberg multibeam vendor format
0150_20150812_170639_Sikuliaq.all.mb58.gz 72.42MB Kongsberg multibeam vendor format
0151_20150812_190641_Sikuliaq.all.mb58.gz 72.60MB Kongsberg multibeam vendor format
0152_20150812_210643_Sikuliaq.all.mb58.gz 76.91MB Kongsberg multibeam vendor format
0153_20150812_230638_Sikuliaq.all.mb58.gz 460.32MB Kongsberg multibeam vendor format
0154_20150813_010637_Sikuliaq.all.mb58.gz 536.37MB Kongsberg multibeam vendor format
0155_20150813_030637_Sikuliaq.all.mb58.gz 509.96MB Kongsberg multibeam vendor format
0156_20150813_050637_Sikuliaq.all.mb58.gz 512.66MB Kongsberg multibeam vendor format
0157_20150813_070637_Sikuliaq.all.mb58.gz 475.44MB Kongsberg multibeam vendor format
0158_20150813_090637_Sikuliaq.all.mb58.gz 445.22MB Kongsberg multibeam vendor format
0159_20150813_110637_Sikuliaq.all.mb58.gz 357.68MB Kongsberg multibeam vendor format
0160_20150813_130638_Sikuliaq.all.mb58.gz 339.68MB Kongsberg multibeam vendor format
0161_20150813_150638_Sikuliaq.all.mb58.gz 389.73MB Kongsberg multibeam vendor format
0162_20150813_170638_Sikuliaq.all.mb58.gz 442.15MB Kongsberg multibeam vendor format
0163_20150813_190638_Sikuliaq.all.mb58.gz 191.75MB Kongsberg multibeam vendor format
0164_20150813_210639_Sikuliaq.all.mb58.gz 213.45MB Kongsberg multibeam vendor format
0165_20150813_230638_Sikuliaq.all.mb58.gz 206.35MB Kongsberg multibeam vendor format
0166_20150814_010638_Sikuliaq.all.mb58.gz 203.54MB Kongsberg multibeam vendor format
0167_20150814_030639_Sikuliaq.all.mb58.gz 237.36MB Kongsberg multibeam vendor format
0168_20150814_050638_Sikuliaq.all.mb58.gz 224.10MB Kongsberg multibeam vendor format
0169_20150814_070639_Sikuliaq.all.mb58.gz 240.24MB Kongsberg multibeam vendor format
0170_20150814_090638_Sikuliaq.all.mb58.gz 217.64MB Kongsberg multibeam vendor format
0171_20150814_110638_Sikuliaq.all.mb58.gz 166.13MB Kongsberg multibeam vendor format
0172_20150814_130639_Sikuliaq.all.mb58.gz 165.55MB Kongsberg multibeam vendor format
0173_20150814_150639_Sikuliaq.all.mb58.gz 165.98MB Kongsberg multibeam vendor format
0174_20150814_170638_Sikuliaq.all.mb58.gz 95.01MB Kongsberg multibeam vendor format
0175_20150814_190641_Sikuliaq.all.mb58.gz 73.88MB Kongsberg multibeam vendor format
0176_20150814_210639_Sikuliaq.all.mb58.gz 73.55MB Kongsberg multibeam vendor format
0177_20150814_230640_Sikuliaq.all.mb58.gz 73.91MB Kongsberg multibeam vendor format
0178_20150815_010639_Sikuliaq.all.mb58.gz 71.29MB Kongsberg multibeam vendor format
0179_20150815_030641_Sikuliaq.all.mb58.gz 68.80MB Kongsberg multibeam vendor format
0180_20150815_050640_Sikuliaq.all.mb58.gz 69.43MB Kongsberg multibeam vendor format
0181_20150815_070642_Sikuliaq.all.mb58.gz 69.51MB Kongsberg multibeam vendor format
0182_20150815_090645_Sikuliaq.all.mb58.gz 68.42MB Kongsberg multibeam vendor format
0183_20150815_110647_Sikuliaq.all.mb58.gz 68.03MB Kongsberg multibeam vendor format
0184_20150815_130646_Sikuliaq.all.mb58.gz 69.31MB Kongsberg multibeam vendor format
0185_20150815_150644_Sikuliaq.all.mb58.gz 69.31MB Kongsberg multibeam vendor format
0186_20150815_170642_Sikuliaq.all.mb58.gz 66.74MB Kongsberg multibeam vendor format
0187_20150815_190642_Sikuliaq.all.mb58.gz 66.70MB Kongsberg multibeam vendor format
0188_20150815_210641_Sikuliaq.all.mb58.gz 42.69MB Kongsberg multibeam vendor format
0189_20150815_234702_Sikuliaq.all.mb58.gz 67.03MB Kongsberg multibeam vendor format
0190_20150816_014702_Sikuliaq.all.mb58.gz 67.95MB Kongsberg multibeam vendor format
0191_20150816_034702_Sikuliaq.all.mb58.gz 68.49MB Kongsberg multibeam vendor format
0192_20150816_054702_Sikuliaq.all.mb58.gz 68.67MB Kongsberg multibeam vendor format
0193_20150816_074704_Sikuliaq.all.mb58.gz 69.30MB Kongsberg multibeam vendor format
0194_20150816_094700_Sikuliaq.all.mb58.gz 68.80MB Kongsberg multibeam vendor format
0195_20150816_114703_Sikuliaq.all.mb58.gz 69.35MB Kongsberg multibeam vendor format
0196_20150816_134658_Sikuliaq.all.mb58.gz 68.71MB Kongsberg multibeam vendor format
0197_20150816_154658_Sikuliaq.all.mb58.gz 62.91MB Kongsberg multibeam vendor format
0198_20150816_174659_Sikuliaq.all.mb58.gz 66.70MB Kongsberg multibeam vendor format
0199_20150816_194657_Sikuliaq.all.mb58.gz 67.84MB Kongsberg multibeam vendor format
0200_20150816_214658_Sikuliaq.all.mb58.gz 68.84MB Kongsberg multibeam vendor format
0201_20150816_234700_Sikuliaq.all.mb58.gz 69.90MB Kongsberg multibeam vendor format
0202_20150817_014700_Sikuliaq.all.mb58.gz 69.89MB Kongsberg multibeam vendor format
0203_20150817_034700_Sikuliaq.all.mb58.gz 69.86MB Kongsberg multibeam vendor format
0204_20150817_054659_Sikuliaq.all.mb58.gz 69.87MB Kongsberg multibeam vendor format
0205_20150817_074702_Sikuliaq.all.mb58.gz 67.77MB Kongsberg multibeam vendor format
0206_20150817_094657_Sikuliaq.all.mb58.gz 68.51MB Kongsberg multibeam vendor format
0207_20150817_114702_Sikuliaq.all.mb58.gz 68.96MB Kongsberg multibeam vendor format
0208_20150817_134703_Sikuliaq.all.mb58.gz 68.78MB Kongsberg multibeam vendor format
0209_20150817_154704_Sikuliaq.all.mb58.gz 69.18MB Kongsberg multibeam vendor format
0210_20150817_174657_Sikuliaq.all.mb58.gz 70.03MB Kongsberg multibeam vendor format
0211_20150817_194701_Sikuliaq.all.mb58.gz 69.98MB Kongsberg multibeam vendor format
0212_20150817_214704_Sikuliaq.all.mb58.gz 72.24MB Kongsberg multibeam vendor format
0213_20150817_234704_Sikuliaq.all.mb58.gz 74.96MB Kongsberg multibeam vendor format
0214_20150818_014701_Sikuliaq.all.mb58.gz 85.56MB Kongsberg multibeam vendor format
0215_20150818_034659_Sikuliaq.all.mb58.gz 197.97MB Kongsberg multibeam vendor format
0216_20150818_054658_Sikuliaq.all.mb58.gz 239.99MB Kongsberg multibeam vendor format
0217_20150818_074658_Sikuliaq.all.mb58.gz 253.27MB Kongsberg multibeam vendor format
0218_20150818_094658_Sikuliaq.all.mb58.gz 203.09MB Kongsberg multibeam vendor format
0219_20150818_114658_Sikuliaq.all.mb58.gz 206.37MB Kongsberg multibeam vendor format
0220_20150818_134658_Sikuliaq.all.mb58.gz 194.39MB Kongsberg multibeam vendor format
0221_20150818_154658_Sikuliaq.all.mb58.gz 313.84MB Kongsberg multibeam vendor format
0222_20150818_174658_Sikuliaq.all.mb58.gz 633.22MB Kongsberg multibeam vendor format
0223_20150818_194658_Sikuliaq.all.mb58.gz 912.86MB Kongsberg multibeam vendor format
0224_20150818_214658_Sikuliaq.all.mb58.gz 762.09MB Kongsberg multibeam vendor format
0225_20150818_234658_Sikuliaq.all.mb58.gz 529.67MB Kongsberg multibeam vendor format
0226_20150819_014658_Sikuliaq.all.mb58.gz 499.04MB Kongsberg multibeam vendor format
0227_20150819_034658_Sikuliaq.all.mb58.gz 499.14MB Kongsberg multibeam vendor format
0228_20150819_054658_Sikuliaq.all.mb58.gz 495.46MB Kongsberg multibeam vendor format
0229_20150819_074658_Sikuliaq.all.mb58.gz 497.84MB Kongsberg multibeam vendor format
0230_20150819_094658_Sikuliaq.all.mb58.gz 497.19MB Kongsberg multibeam vendor format
0231_20150819_114658_Sikuliaq.all.mb58.gz 488.80MB Kongsberg multibeam vendor format
0232_20150819_134659_Sikuliaq.all.mb58.gz 483.78MB Kongsberg multibeam vendor format
0233_20150819_154659_Sikuliaq.all.mb58.gz 448.31MB Kongsberg multibeam vendor format
0234_20150819_174659_Sikuliaq.all.mb58.gz 399.02MB Kongsberg multibeam vendor format
0235_20150819_194659_Sikuliaq.all.mb58.gz 332.46MB Kongsberg multibeam vendor format
0236_20150819_214659_Sikuliaq.all.mb58.gz 301.22MB Kongsberg multibeam vendor format
0237_20150819_234659_Sikuliaq.all.mb58.gz 171.32MB Kongsberg multibeam vendor format
0238_20150820_014659_Sikuliaq.all.mb58.gz 290.70MB Kongsberg multibeam vendor format
0239_20150820_034659_Sikuliaq.all.mb58.gz 240.47MB Kongsberg multibeam vendor format
0240_20150820_054659_Sikuliaq.all.mb58.gz 238.66MB Kongsberg multibeam vendor format
0241_20150820_074659_Sikuliaq.all.mb58.gz 281.27MB Kongsberg multibeam vendor format
0242_20150820_094659_Sikuliaq.all.mb58.gz 280.49MB Kongsberg multibeam vendor format
0243_20150820_114659_Sikuliaq.all.mb58.gz 227.06MB Kongsberg multibeam vendor format
0244_20150820_134659_Sikuliaq.all.mb58.gz 203.13MB Kongsberg multibeam vendor format
0245_20150820_154659_Sikuliaq.all.mb58.gz 192.83MB Kongsberg multibeam vendor format
0246_20150820_174659_Sikuliaq.all.mb58.gz 192.10MB Kongsberg multibeam vendor format
0247_20150820_194659_Sikuliaq.all.mb58.gz 237.86MB Kongsberg multibeam vendor format
0248_20150820_214700_Sikuliaq.all.mb58.gz 450.89MB Kongsberg multibeam vendor format
0249_20150820_234700_Sikuliaq.all.mb58.gz 460.50MB Kongsberg multibeam vendor format
0250_20150821_014700_Sikuliaq.all.mb58.gz 314.28MB Kongsberg multibeam vendor format
0251_20150821_034700_Sikuliaq.all.mb58.gz 301.36MB Kongsberg multibeam vendor format
0252_20150821_054700_Sikuliaq.all.mb58.gz 293.28MB Kongsberg multibeam vendor format
0253_20150821_074700_Sikuliaq.all.mb58.gz 354.53MB Kongsberg multibeam vendor format
0254_20150821_094700_Sikuliaq.all.mb58.gz 398.80MB Kongsberg multibeam vendor format
0255_20150821_114700_Sikuliaq.all.mb58.gz 149.16MB Kongsberg multibeam vendor format
0256_20150821_134700_Sikuliaq.all.mb58.gz 219.76MB Kongsberg multibeam vendor format
0257_20150821_154700_Sikuliaq.all.mb58.gz 17.26MB Kongsberg multibeam vendor format
0000_20150723_202848_Sikuliaq.all.mb58.gz 1103.14MB Kongsberg multibeam vendor format
0001_20150723_215848_Sikuliaq.all.mb58.gz 1122.96MB Kongsberg multibeam vendor format
0002_20150723_231420_Sikuliaq.all.mb58.gz 1044.91MB Kongsberg multibeam vendor format
0003_20150724_004420_Sikuliaq.all.mb58.gz 882.98MB Kongsberg multibeam vendor format
0004_20150724_021420_Sikuliaq.all.mb58.gz 876.76MB Kongsberg multibeam vendor format
0005_20150724_033246_Sikuliaq.all.mb58.gz 680.66MB Kongsberg multibeam vendor format
0006_20150724_043157_Sikuliaq.all.mb58.gz 718.88MB Kongsberg multibeam vendor format
0007_20150724_052949_Sikuliaq.all.mb58.gz 773.94MB Kongsberg multibeam vendor format
0008_20150724_063208_Sikuliaq.all.mb58.gz 685.73MB Kongsberg multibeam vendor format
0009_20150724_072822_Sikuliaq.all.mb58.gz 794.89MB Kongsberg multibeam vendor format
0010_20150724_083550_Sikuliaq.all.mb58.gz 925.85MB Kongsberg multibeam vendor format
0011_20150724_100550_Sikuliaq.all.mb58.gz 874.74MB Kongsberg multibeam vendor format
0012_20150724_112753_Sikuliaq.all.mb58.gz 741.11MB Kongsberg multibeam vendor format
0013_20150724_123403_Sikuliaq.all.mb58.gz 673.61MB Kongsberg multibeam vendor format
0014_20150724_133220_Sikuliaq.all.mb58.gz 635.75MB Kongsberg multibeam vendor format
0015_20150724_142941_Sikuliaq.all.mb58.gz 597.91MB Kongsberg multibeam vendor format
0016_20150724_152522_Sikuliaq.all.mb58.gz 559.75MB Kongsberg multibeam vendor format
0017_20150724_162030_Sikuliaq.all.mb58.gz 525.67MB Kongsberg multibeam vendor format
0018_20150724_171348_Sikuliaq.all.mb58.gz 326.12MB Kongsberg multibeam vendor format
0019_20150724_184348_Sikuliaq.all.mb58.gz 563.44MB Kongsberg multibeam vendor format
0020_20150724_195511_Sikuliaq.all.mb58.gz 606.83MB Kongsberg multibeam vendor format
0021_20150724_205052_Sikuliaq.all.mb58.gz 718.61MB Kongsberg multibeam vendor format
0022_20150724_215343_Sikuliaq.all.mb58.gz 758.69MB Kongsberg multibeam vendor format
0023_20150724_230609_Sikuliaq.all.mb58.gz 683.69MB Kongsberg multibeam vendor format
0024_20150725_000805_Sikuliaq.all.mb58.gz 919.50MB Kongsberg multibeam vendor format
0025_20150725_013629_Sikuliaq.all.mb58.gz 872.01MB Kongsberg multibeam vendor format
0026_20150725_025935_Sikuliaq.all.mb58.gz 788.74MB Kongsberg multibeam vendor format
0027_20150725_041519_Sikuliaq.all.mb58.gz 805.97MB Kongsberg multibeam vendor format
0028_20150725_053728_Sikuliaq.all.mb58.gz 875.54MB Kongsberg multibeam vendor format
0029_20150725_070722_Sikuliaq.all.mb58.gz 837.91MB Kongsberg multibeam vendor format
0030_20150725_083005_Sikuliaq.all.mb58.gz 889.27MB Kongsberg multibeam vendor format
0031_20150725_095757_Sikuliaq.all.mb58.gz 781.91MB Kongsberg multibeam vendor format
0032_20150725_111307_Sikuliaq.all.mb58.gz 675.63MB Kongsberg multibeam vendor format
0033_20150725_121336_Sikuliaq.all.mb58.gz 622.09MB Kongsberg multibeam vendor format
0034_20150725_130750_Sikuliaq.all.mb58.gz 597.97MB Kongsberg multibeam vendor format
0035_20150725_140013_Sikuliaq.all.mb58.gz 591.22MB Kongsberg multibeam vendor format
0036_20150725_145247_Sikuliaq.all.mb58.gz 562.26MB Kongsberg multibeam vendor format
0037_20150725_154426_Sikuliaq.all.mb58.gz 570.70MB Kongsberg multibeam vendor format
0038_20150725_164230_Sikuliaq.all.mb58.gz 589.00MB Kongsberg multibeam vendor format
0039_20150725_174405_Sikuliaq.all.mb58.gz 581.38MB Kongsberg multibeam vendor format
0040_20150725_184126_Sikuliaq.all.mb58.gz 551.16MB Kongsberg multibeam vendor format
0041_20150725_194205_Sikuliaq.all.mb58.gz 559.55MB Kongsberg multibeam vendor format
0042_20150725_210118_Sikuliaq.all.mb58.gz 569.46MB Kongsberg multibeam vendor format
0043_20150725_220952_Sikuliaq.all.mb58.gz 637.53MB Kongsberg multibeam vendor format
0044_20150725_232302_Sikuliaq.all.mb58.gz 584.62MB Kongsberg multibeam vendor format
0045_20150726_001855_Sikuliaq.all.mb58.gz 558.44MB Kongsberg multibeam vendor format
0046_20150726_011308_Sikuliaq.all.mb58.gz 543.48MB Kongsberg multibeam vendor format
0047_20150726_020710_Sikuliaq.all.mb58.gz 478.04MB Kongsberg multibeam vendor format
0048_20150726_030135_Sikuliaq.all.mb58.gz 354.54MB Kongsberg multibeam vendor format
0049_20150726_043135_Sikuliaq.all.mb58.gz 309.76MB Kongsberg multibeam vendor format
0050_20150726_060135_Sikuliaq.all.mb58.gz 500.25MB Kongsberg multibeam vendor format
0051_20150726_073126_Sikuliaq.all.mb58.gz 563.96MB Kongsberg multibeam vendor format
0052_20150726_090126_Sikuliaq.all.mb58.gz 575.93MB Kongsberg multibeam vendor format
0053_20150726_103126_Sikuliaq.all.mb58.gz 521.70MB Kongsberg multibeam vendor format
0054_20150726_120126_Sikuliaq.all.mb58.gz 493.83MB Kongsberg multibeam vendor format
0055_20150726_133126_Sikuliaq.all.mb58.gz 472.50MB Kongsberg multibeam vendor format
0056_20150726_150126_Sikuliaq.all.mb58.gz 477.41MB Kongsberg multibeam vendor format
0057_20150726_163126_Sikuliaq.all.mb58.gz 483.02MB Kongsberg multibeam vendor format
0058_20150726_180126_Sikuliaq.all.mb58.gz 486.00MB Kongsberg multibeam vendor format
0059_20150726_193125_Sikuliaq.all.mb58.gz 517.87MB Kongsberg multibeam vendor format
0060_20150726_210125_Sikuliaq.all.mb58.gz 472.97MB Kongsberg multibeam vendor format
0061_20150726_223126_Sikuliaq.all.mb58.gz 400.50MB Kongsberg multibeam vendor format
0062_20150727_000126_Sikuliaq.all.mb58.gz 239.32MB Kongsberg multibeam vendor format
0063_20150727_013126_Sikuliaq.all.mb58.gz 180.14MB Kongsberg multibeam vendor format
0064_20150727_030125_Sikuliaq.all.mb58.gz 113.39MB Kongsberg multibeam vendor format
0065_20150813_004548_Sikuliaq.all.mb58.gz 595.42MB Kongsberg multibeam vendor format
0066_20150813_020200_Sikuliaq.all.mb58.gz 602.64MB Kongsberg multibeam vendor format
0067_20150813_025815_Sikuliaq.all.mb58.gz 566.92MB Kongsberg multibeam vendor format
0068_20150813_035312_Sikuliaq.all.mb58.gz 537.52MB Kongsberg multibeam vendor format
0069_20150813_044631_Sikuliaq.all.mb58.gz 546.41MB Kongsberg multibeam vendor format
0070_20150813_053949_Sikuliaq.all.mb58.gz 559.52MB Kongsberg multibeam vendor format
0071_20150813_063414_Sikuliaq.all.mb58.gz 534.33MB Kongsberg multibeam vendor format
0072_20150813_072732_Sikuliaq.all.mb58.gz 506.79MB Kongsberg multibeam vendor format
0073_20150813_082007_Sikuliaq.all.mb58.gz 513.83MB Kongsberg multibeam vendor format
0074_20150813_091219_Sikuliaq.all.mb58.gz 511.09MB Kongsberg multibeam vendor format
0075_20150813_100420_Sikuliaq.all.mb58.gz 442.98MB Kongsberg multibeam vendor format
0076_20150813_105504_Sikuliaq.all.mb58.gz 378.19MB Kongsberg multibeam vendor format
0077_20150813_114252_Sikuliaq.all.mb58.gz 396.23MB Kongsberg multibeam vendor format
0078_20150813_123113_Sikuliaq.all.mb58.gz 424.72MB Kongsberg multibeam vendor format
0079_20150813_132241_Sikuliaq.all.mb58.gz 424.76MB Kongsberg multibeam vendor format
0080_20150813_141230_Sikuliaq.all.mb58.gz 618.00MB Kongsberg multibeam vendor format
0081_20150813_153820_Sikuliaq.all.mb58.gz 480.73MB Kongsberg multibeam vendor format
0082_20150813_163212_Sikuliaq.all.mb58.gz 529.51MB Kongsberg multibeam vendor format
0083_20150813_172743_Sikuliaq.all.mb58.gz 568.66MB Kongsberg multibeam vendor format
0084_20150813_182357_Sikuliaq.all.mb58.gz 548.86MB Kongsberg multibeam vendor format
0085_20150813_195359_Sikuliaq.all.mb58.gz 372.31MB Kongsberg multibeam vendor format
0086_20150813_212358_Sikuliaq.all.mb58.gz 449.60MB Kongsberg multibeam vendor format
0087_20150813_225358_Sikuliaq.all.mb58.gz 454.30MB Kongsberg multibeam vendor format
0088_20150814_002358_Sikuliaq.all.mb58.gz 429.24MB Kongsberg multibeam vendor format
0089_20150814_015358_Sikuliaq.all.mb58.gz 435.21MB Kongsberg multibeam vendor format
0090_20150814_032358_Sikuliaq.all.mb58.gz 523.43MB Kongsberg multibeam vendor format
0091_20150814_045358_Sikuliaq.all.mb58.gz 476.55MB Kongsberg multibeam vendor format
0092_20150814_062357_Sikuliaq.all.mb58.gz 469.77MB Kongsberg multibeam vendor format
0093_20150814_075357_Sikuliaq.all.mb58.gz 554.13MB Kongsberg multibeam vendor format
0094_20150814_092358_Sikuliaq.all.mb58.gz 467.64MB Kongsberg multibeam vendor format
0095_20150814_105357_Sikuliaq.all.mb58.gz 197.18MB Kongsberg multibeam vendor format
0096_20150814_122358_Sikuliaq.all.mb58.gz 181.39MB Kongsberg multibeam vendor format
0097_20150814_135358_Sikuliaq.all.mb58.gz 181.68MB Kongsberg multibeam vendor format
0098_20150814_152358_Sikuliaq.all.mb58.gz 183.23MB Kongsberg multibeam vendor format
0099_20150814_165357_Sikuliaq.all.mb58.gz 92.13MB Kongsberg multibeam vendor format
0100_20150818_030933_Sikuliaq.all.mb58.gz 126.53MB Kongsberg multibeam vendor format
0101_20150818_043933_Sikuliaq.all.mb58.gz 258.22MB Kongsberg multibeam vendor format
0102_20150818_060933_Sikuliaq.all.mb58.gz 289.82MB Kongsberg multibeam vendor format
0103_20150818_073933_Sikuliaq.all.mb58.gz 319.79MB Kongsberg multibeam vendor format
0104_20150818_090933_Sikuliaq.all.mb58.gz 225.23MB Kongsberg multibeam vendor format
0105_20150818_103933_Sikuliaq.all.mb58.gz 218.78MB Kongsberg multibeam vendor format
0106_20150818_120933_Sikuliaq.all.mb58.gz 223.27MB Kongsberg multibeam vendor format
0107_20150818_133933_Sikuliaq.all.mb58.gz 207.06MB Kongsberg multibeam vendor format
0108_20150818_150933_Sikuliaq.all.mb58.gz 212.79MB Kongsberg multibeam vendor format
0109_20150818_163933_Sikuliaq.all.mb58.gz 387.55MB Kongsberg multibeam vendor format
0110_20150818_180933_Sikuliaq.all.mb58.gz 323.22MB Kongsberg multibeam vendor format
0111_20150818_185154_Sikuliaq.all.mb58.gz 73.42MB Kongsberg multibeam vendor format
0112_20150818_185808_Sikuliaq.all.mb58.gz 24.43MB Kongsberg multibeam vendor format
0113_20150818_190013_Sikuliaq.all.mb58.gz 39.30MB Kongsberg multibeam vendor format
0114_20150818_190331_Sikuliaq.all.mb58.gz 695.58MB Kongsberg multibeam vendor format
0115_20150818_195855_Sikuliaq.all.mb58.gz 827.22MB Kongsberg multibeam vendor format
0116_20150818_205711_Sikuliaq.all.mb58.gz 1252.44MB Kongsberg multibeam vendor format
0117_20150818_220215_Sikuliaq.all.mb58.gz 717.65MB Kongsberg multibeam vendor format
0118_20150818_225851_Sikuliaq.all.mb58.gz 634.42MB Kongsberg multibeam vendor format
0119_20150818_235316_Sikuliaq.all.mb58.gz 624.87MB Kongsberg multibeam vendor format
0120_20150819_011240_Sikuliaq.all.mb58.gz 443.22MB Kongsberg multibeam vendor format
0121_20150819_024241_Sikuliaq.all.mb58.gz 437.01MB Kongsberg multibeam vendor format
0122_20150819_041240_Sikuliaq.all.mb58.gz 427.69MB Kongsberg multibeam vendor format
0123_20150819_054241_Sikuliaq.all.mb58.gz 443.49MB Kongsberg multibeam vendor format
0124_20150819_071241_Sikuliaq.all.mb58.gz 447.29MB Kongsberg multibeam vendor format
0125_20150819_084240_Sikuliaq.all.mb58.gz 444.83MB Kongsberg multibeam vendor format
0126_20150819_101240_Sikuliaq.all.mb58.gz 444.84MB Kongsberg multibeam vendor format
0127_20150819_114241_Sikuliaq.all.mb58.gz 434.33MB Kongsberg multibeam vendor format
0128_20150819_131240_Sikuliaq.all.mb58.gz 429.67MB Kongsberg multibeam vendor format
0129_20150819_144240_Sikuliaq.all.mb58.gz 439.40MB Kongsberg multibeam vendor format
0130_20150819_161240_Sikuliaq.all.mb58.gz 399.41MB Kongsberg multibeam vendor format
0131_20150819_174240_Sikuliaq.all.mb58.gz 393.44MB Kongsberg multibeam vendor format
0132_20150819_191240_Sikuliaq.all.mb58.gz 309.62MB Kongsberg multibeam vendor format
0133_20150819_204240_Sikuliaq.all.mb58.gz 315.65MB Kongsberg multibeam vendor format
0134_20150819_221240_Sikuliaq.all.mb58.gz 275.63MB Kongsberg multibeam vendor format
0135_20150819_234240_Sikuliaq.all.mb58.gz 101.53MB Kongsberg multibeam vendor format
0136_20150820_011240_Sikuliaq.all.mb58.gz 276.79MB Kongsberg multibeam vendor format
0137_20150820_024240_Sikuliaq.all.mb58.gz 232.24MB Kongsberg multibeam vendor format
0138_20150820_041240_Sikuliaq.all.mb58.gz 199.19MB Kongsberg multibeam vendor format
0139_20150820_054240_Sikuliaq.all.mb58.gz 196.65MB Kongsberg multibeam vendor format
0140_20150820_071240_Sikuliaq.all.mb58.gz 231.91MB Kongsberg multibeam vendor format
0141_20150820_084240_Sikuliaq.all.mb58.gz 272.98MB Kongsberg multibeam vendor format
0142_20150820_101240_Sikuliaq.all.mb58.gz 261.14MB Kongsberg multibeam vendor format
0143_20150820_114240_Sikuliaq.all.mb58.gz 226.13MB Kongsberg multibeam vendor format
0144_20150820_131240_Sikuliaq.all.mb58.gz 186.87MB Kongsberg multibeam vendor format
0145_20150820_144240_Sikuliaq.all.mb58.gz 139.56MB Kongsberg multibeam vendor format
0146_20150820_161240_Sikuliaq.all.mb58.gz 143.42MB Kongsberg multibeam vendor format
0147_20150820_174240_Sikuliaq.all.mb58.gz 143.09MB Kongsberg multibeam vendor format
0148_20150820_191240_Sikuliaq.all.mb58.gz 142.77MB Kongsberg multibeam vendor format
0149_20150820_204240_Sikuliaq.all.mb58.gz 273.64MB Kongsberg multibeam vendor format
0150_20150820_221240_Sikuliaq.all.mb58.gz 431.42MB Kongsberg multibeam vendor format
0151_20150820_234240_Sikuliaq.all.mb58.gz 430.72MB Kongsberg multibeam vendor format
0152_20150821_011240_Sikuliaq.all.mb58.gz 356.46MB Kongsberg multibeam vendor format
0153_20150821_024240_Sikuliaq.all.mb58.gz 238.48MB Kongsberg multibeam vendor format
0154_20150821_041240_Sikuliaq.all.mb58.gz 242.86MB Kongsberg multibeam vendor format
0155_20150821_054240_Sikuliaq.all.mb58.gz 229.62MB Kongsberg multibeam vendor format
0156_20150821_071240_Sikuliaq.all.mb58.gz 250.75MB Kongsberg multibeam vendor format
0157_20150821_084240_Sikuliaq.all.mb58.gz 290.98MB Kongsberg multibeam vendor format
0158_20150821_101240_Sikuliaq.all.mb58.gz 304.34MB Kongsberg multibeam vendor format
0159_20150821_114240_Sikuliaq.all.mb58.gz 133.01MB Kongsberg multibeam vendor format
0160_20150821_131240_Sikuliaq.all.mb58.gz 111.91MB Kongsberg multibeam vendor format
0161_20150821_144240_Sikuliaq.all.mb58.gz 151.59MB Kongsberg multibeam vendor format

Metadata Files: 3

Files File Size Description
SKQ201510S_Multibeam.xml NGDC created ISO metadata
em302_bag_info.tar.gz 31.9KB Additional cruise information
em710_bag_info.tar.gz 14.7KB Additional cruise information

Water Column Sonar Data

Water Column Sonar Data Available: WCSD Map Viewer